TimeMST,TemperatureF,Dew PointF,Humidity,Sea Level PressureIn,VisibilityMPH,Wind Direction,Wind SpeedMPH,Gust SpeedMPH,PrecipitationIn,Events,Conditions,WindDirDegrees,DateUTC
12:53 AM,14.0,6.1,71,30.23,10.0,NE,4.6,-,N/A,,Clear,50,2013-03-06 07:53:00
1:53 AM,17.1,7.0,65,30.18,10.0,Calm,Calm,-,N/A,,Clear,0,2013-03-06 08:53:00
2:53 AM,15.1,6.1,68,30.15,10.0,Calm,Calm,-,N/A,,Clear,0,2013-03-06 09:53:00
3:53 AM,12.9,5.0,71,30.13,10.0,NE,3.5,-,N/A,,Clear,50,2013-03-06 10:53:00
4:53 AM,12.0,5.0,73,30.15,10.0,ENE,4.6,-,N/A,,Clear,60,2013-03-06 11:53:00
5:53 AM,14.0,6.1,71,30.14,10.0,Variable,3.5,-,N/A,,Clear,0,2013-03-06 12:53:00
6:53 AM,12.9,5.0,71,30.16,10.0,Calm,Calm,-,N/A,,Clear,0,2013-03-06 13:53:00
7:53 AM,21.0,10.0,63,30.14,10.0,Calm,Calm,-,N/A,,Clear,0,2013-03-06 14:53:00
8:53 AM,28.9,12.9,51,30.12,10.0,Calm,Calm,-,N/A,,Clear,0,2013-03-06 15:53:00
9:53 AM,34.0,16.0,48,30.09,10.0,Calm,Calm,-,N/A,,Clear,0,2013-03-06 16:53:00
10:53 AM,39.0,19.0,45,30.05,10.0,Calm,Calm,-,N/A,,Clear,0,2013-03-06 17:53:00
11:53 AM,48.0,21.0,34,29.99,10.0,SSW,12.7,-,N/A,,Mostly Cloudy,200,2013-03-06 18:53:00
12:53 PM,48.0,21.0,34,29.95,10.0,SSW,13.8,23.0,N/A,,Scattered Clouds,200,2013-03-06 19:53:00
1:53 PM,46.9,21.9,37,29.93,10.0,SW,11.5,-,N/A,,Partly Cloudy,220,2013-03-06 20:53:00
2:53 PM,48.0,19.9,33,29.91,10.0,SW,21.9,29.9,N/A,,Clear,230,2013-03-06 21:53:00
3:53 PM,48.9,21.0,33,29.90,10.0,SSW,9.2,-,N/A,,Clear,200,2013-03-06 22:53:00
4:53 PM,48.9,17.1,28,29.91,10.0,SSW,19.6,27.6,N/A,,Clear,210,2013-03-06 23:53:00
5:53 PM,45.0,21.0,39,29.93,10.0,SSW,5.8,-,N/A,,Clear,210,2013-03-07 00:53:00
6:53 PM,36.0,24.1,62,29.98,10.0,Calm,Calm,-,N/A,,Clear,0,2013-03-07 01:53:00
7:53 PM,33.1,24.1,70,29.97,10.0,East,3.5,-,N/A,,Clear,80,2013-03-07 02:53:00
8:53 PM,32.0,21.9,66,29.94,10.0,NE,3.5,-,N/A,,Clear,50,2013-03-07 03:53:00
9:53 PM,30.9,21.9,69,29.92,10.0,Calm,Calm,-,N/A,,Clear,0,2013-03-07 04:53:00
10:53 PM,28.9,21.0,72,29.91,10.0,NE,4.6,-,N/A,,Clear,50,2013-03-07 05:53:00
11:53 PM,28.9,21.0,72,29.86,10.0,Calm,Calm,-,N/A,,Clear,0,2013-03-07 06:53:00